Location: La Bastide
(43.1661°N, 1.2755°E)
Time: 10:37:52
(UTC+00:00)

BREEZE-M DEB (TANK) - Pass Details

Date: 13 December 2025
Orbit: 754 x 22172 km, 51.3° (Epoch: 20 January)

Event Time Altitude Azimuth Distance (km) Brightness Sun altitude
Rises 18:54:57 0° 237° (WSW) 5,942 8.5 -27.3°
Reaches altitude 10° 18:59:45 10° 238° (WSW) 3,723 7.3 -28.2°
Enters shadow 19:06:25 79° 260° (W) 872 3.2 -29.4°
